Station DHXA2 - Deadhorse, AK Image indicating link to RSS feed of recent meteorological observations for station DHXA2


Conditions at DHXA2 as of
(9:44 am AKDT)
1744 GMT on 04/15/2024:
     

Click on the graph icon in the table below to see a time series plot of the last five days of that observation.

5-day plot - Wind Direction Wind Direction (WDIR):SSW ( 200 deg true )
5-day plot - Wind Speed Wind Speed (WSPD): 19 kts
5-day plot - Wind Gust Wind Gust (GST): 25 kts
5-day plot - Atmospheric Pressure Atmospheric Pressure (PRES):29.91 in
5-day plot - Air Temperature Air Temperature (ATMP): 21.7 °F
5-day plot - Dew Point Dew Point (DEWP): 13.5 °F
5-day plot -  Wind Speed, Wind Gust and Atmospheric Pressure Combined plot of Wind Speed, Gust, and Air Pressure
Previous observations
TIME
(AKDT)
5-day plot - Wind Direction
WDIR
 
5-day plot - Wind Speed
WSPD
kts
5-day plot - Wind Gust
GST
kts
5-day plot - Wave Height
WVHT
ft
5-day plot - Dominant Wave Period
DPD
sec
5-day plot - Average Wave Period
APD
sec
5-day plot - Mean Wave Direction
MWD
 
5-day plot - Atmospheric Pressure
PRES
in
5-day plot - Pressure Tendency
PTDY
in
5-day plot - Air Temperature
ATMP
°F
5-day plot - Water Temperature
WTMP
°F
5-day plot - Dew Point
DEWP
°F
5-day plot - Salinity
SAL
psu
5-day plot - Visibility
VIS
nmi
5-day plot - Tide (above MLLW)
TIDE
ft
2024-04-15 09:34 amSSW 20 27----29.91- 22.3- 13.1---
2024-04-15 09:24 amSSW 21 27----29.91- 22.3- 12.9---
2024-04-15 09:14 amSSW 20 26----29.92- 22.1- 12.7---
2024-04-15 09:04 amSSW 21 27----29.92- 21.7- 12.6---
2024-04-15 08:54 amSSW 20 25----29.92- 21.2- 12.7---
2024-04-15 08:44 amSSW 19 25----29.92- 20.7- 12.7---
2024-04-15 08:34 amSSW 18 25----29.92- 20.7- 12.6---
2024-04-15 08:24 amSSW 18 23----29.93- 20.5- 12.2---
2024-04-15 08:14 amSSW 19 25----29.93- 20.3- 11.8---
2024-04-15 08:04 amSSW 20 26----29.93- 19.6- 11.5---
2024-04-15 07:54 amSSW 18 22----29.93- 18.7- 10.9---
2024-04-15 07:43 amSSW 18 24----29.93- 18.7- 10.2---
2024-04-15 07:34 amSSW 18 25----29.93- 18.7- 10.0---
2024-04-15 07:24 amSSW 18 22----29.93- 18.5- 9.9---
2024-04-15 07:14 amSSW 17 21----29.93- 17.6- 9.7---
2024-04-15 07:04 amSSW 18 21----29.93- 17.2- 9.5---
2024-04-15 06:54 amSSW 17 22----29.93- 17.1- 9.5---
2024-04-15 06:44 am S 16 21----29.93- 16.2- 9.3---
2024-04-15 06:33 am S 15 19----29.93- 15.6- 9.0---
2024-04-15 06:24 am S 16 20----29.93- 15.4- 8.4---
2024-04-15 06:14 am S 16 21----29.93- 15.4- 8.1---
2024-04-15 06:04 am S 14 17----29.93- 14.9- 7.9---
2024-04-15 05:54 amSSW 15 18----29.94- 14.5- 7.5---
2024-04-15 05:44 amSSW 13 16----29.94- 13.3- 6.8---
2024-04-15 05:34 amSSW 12 16----29.94- 11.7- 5.9---
2024-04-15 05:24 am S 11 13----29.94- 10.4- 4.5---
2024-04-15 05:14 am S 10 12----29.95- 9.9- 3.6---
2024-04-15 05:04 am S 9 11----29.95- 9.3- 2.5---
2024-04-15 04:53 am S 8 10----29.95- 8.8- 1.8---
2024-04-15 04:43 am S 8 10----29.95- 7.9- 1.4---
2024-04-15 04:33 amSSE 8 9----29.95- 6.8- 1.0---
2024-04-15 04:23 am SE 8 10----29.96- 5.0- 0.1---
2024-04-15 04:14 am SE 10 12----29.96- 3.9- -0.6---
2024-04-15 04:03 amESE 11 12----29.96- 3.6- -0.8---
2024-04-15 03:53 amESE 11 12----29.96- 3.6- -0.6---
2024-04-15 03:44 amESE 10 11----29.96- 3.2- -0.6---
2024-04-15 03:34 amESE 10 12----29.96- 3.2- -0.6---
2024-04-15 03:23 amESE 10 11----29.97- 3.0- -0.6---
2024-04-15 03:13 amESE 10 12----29.97- 2.8- -0.8---
2024-04-15 03:04 amESE 10 12----29.97- 2.7- -0.8---
2024-04-15 02:53 amESE 10 11----29.98- 2.5- -1.1---
2024-04-15 02:43 amESE 10 12----29.98- 2.3- -1.5---
2024-04-15 02:34 amESE 11 13----29.98- 1.9- -1.8---
2024-04-15 02:24 amESE 11 13----29.98- 1.9- -2.0---
2024-04-15 02:13 amESE 11 13----29.98- 2.1- -2.0---
2024-04-15 02:04 amESE 11 13----29.98- 2.1- -2.0---
2024-04-15 01:53 amESE 12 14----29.98- 2.1- -2.0---
2024-04-15 01:44 amESE 12 14----29.98- 1.8- -2.4---
2024-04-15 01:34 amESE 12 15----29.98- 1.6- -2.6---
2024-04-15 01:24 amESE 12 14----29.98- 1.6- -3.1---
2024-04-15 01:23 amESE 12 14----29.98- 1.6- -3.1---
2024-04-15 01:04 amESE 12 13----29.98- 1.4- -4.4---
2024-04-15 12:54 amESE 12 14----29.99- 1.0- -4.7---
2024-04-15 12:44 amESE 12 14----29.99- 1.0- -4.0---
2024-04-15 12:33 amESE 11 14----29.99- 0.9- -3.6---
2024-04-15 12:23 amESE 11 13----29.99- 0.9- -3.6---
2024-04-15 12:15 amESE 11 13----29.99- 1.0- -3.5---
2024-04-15 12:04 amESE 11 12----29.99- 1.0- -3.5---
2024-04-14 11:53 pmESE 11 12----29.99- 1.0- -3.3---
2024-04-14 11:44 pmESE 11 12----30.00- 0.9- -3.5---
2024-04-14 11:34 pmESE 10 12----30.00- 0.7- -3.6---
2024-04-14 11:24 pmESE 11 12----30.00- 0.9- -3.8---
2024-04-14 11:14 pmESE 11 12----30.01- 1.0- -4.5---
2024-04-14 11:03 pm SE 10 12----30.01- 1.2- -4.9---
2024-04-14 10:53 pm SE 10 12----30.01- 1.2- -5.1---
2024-04-14 10:44 pm SE 9 11----30.01- 1.8- -5.3---
2024-04-14 10:33 pm SE 8 10----30.01- 1.4- -4.9---
2024-04-14 10:23 pm SE 9 10----30.01- 1.2- -4.9---
2024-04-14 10:14 pm SE 9 10----30.01- 1.0- -4.5---
2024-04-14 10:04 pm SE 7 10----30.02- 1.2- -4.5---
2024-04-14 09:53 pmSSE 6 9----30.02- 0.9- -4.0---
2024-04-14 09:44 pm SE 4 6----30.02- 1.0- -3.8---
2024-04-14 09:34 pmSSE 4 5----30.02- 1.2- -3.6---
2024-04-14 09:24 pmSSE 3 5----30.02- 1.0- -3.8---
2024-04-14 09:14 pm S 3 5----30.02- 0.9- -3.8---
2024-04-14 09:04 pmSSE 3 4----30.02- 1.0- -4.0---
2024-04-14 08:54 pm S 2 4----30.03- 1.2- -4.0---
2024-04-14 08:44 pmSSW 3 4----30.03- 1.4- -4.4---
2024-04-14 08:34 pm SW 4 6----30.03- 1.6- -4.5---
2024-04-14 08:24 pmSSW 5 8----30.04- 1.4- -4.5---
2024-04-14 08:14 pmWSW 6 8----30.03- 1.2- -4.5---
2024-04-14 08:04 pmWSW 7 9----30.03- 1.0- -4.7---
2024-04-14 07:53 pmWSW 7 9----30.04- 1.0- -4.5---
2024-04-14 07:43 pmWSW 6 8----30.04- 0.9- -4.9---
2024-04-14 07:33 pmWSW 7 9----30.03- 0.9- -4.7---
2024-04-14 07:23 pmWSW 7 9----30.04- 0.7- -4.5---
2024-04-14 07:13 pm W 6 8----30.04- 0.7- -4.2---
2024-04-14 07:04 pmWSW 6 8----30.04- 0.7- -4.2---
2024-04-14 06:54 pmWSW 7 9----30.04- 0.5- -4.2---
2024-04-14 06:44 pmWSW 6 8----30.04- 0.3- -4.7---
2024-04-14 06:34 pmWSW 8 10----30.04- 0.5- -5.3---
2024-04-14 06:24 pmWSW 7 10----30.05- 0.5- -4.9---
2024-04-14 06:13 pm W 8 10----30.05- 0.5- -4.9---
2024-04-14 06:04 pm W 8 10----30.05- 0.3- -5.1---
2024-04-14 05:54 pm W 8 10----30.05- 0.1- -5.6---
2024-04-14 05:44 pm W 8 11----30.05- 0.1- -5.8---
2024-04-14 05:34 pm W 10 13----30.05- -0.0- -6.0---
2024-04-14 05:24 pm W 11 15----30.05- 0.3- -5.6---
2024-04-14 05:14 pm W 10 14----30.05- 0.3- -4.5---
2024-04-14 05:04 pm W 10 13----30.05- 0.1- -4.4---
2024-04-14 04:53 pmWSW 10 13----30.05- 0.1- -4.4---
2024-04-14 04:44 pmWSW 12 14----30.04- -0.2- -4.7---
2024-04-14 04:34 pmWSW 11 14----30.04- -0.2- -4.7---
2024-04-14 04:24 pmWSW 10 15----30.05- -0.4- -4.9---
2024-04-14 04:13 pmWSW 9 13----30.05- -0.8- -5.3---
2024-04-14 03:53 pm SW 10 13----30.05- -1.5- -5.8---
2024-04-14 03:44 pm SW 11 14----30.05- -1.8- -6.2---
2024-04-14 03:34 pm SW 11 13----30.04- -1.8- -6.3---
2024-04-14 03:23 pm SW 11 13----30.05- -2.0- -6.7---
2024-04-14 03:14 pmWSW 10 13----30.05- -1.7- -6.3---
2024-04-14 03:04 pmWSW 10 13----30.05- -1.7- -6.3---
2024-04-14 02:53 pmWSW 11 14----30.05- -2.0- -6.5---
2024-04-14 02:44 pmWSW 12 16----30.05- -2.0- -6.7---
2024-04-14 02:34 pmWSW 14 18----30.05- -2.2- -6.7---
2024-04-14 02:24 pm W 15 19----30.05- -2.4- -6.7---
2024-04-14 02:13 pmWSW 16 20----30.05- -2.7- -7.2---
2024-04-14 02:04 pmWSW 16 20----30.04- -3.1- -7.6---
2024-04-14 01:54 pmWSW 15 19----30.04- -3.1- -7.6---
2024-04-14 01:44 pmWSW 15 19----30.04- -3.5- -8.0---
2024-04-14 01:34 pmWSW 16 21----30.04- -3.6- -8.0---
2024-04-14 01:24 pmWSW 15 19----30.04- -4.0- -8.1---
2024-04-14 01:14 pmWSW 14 19----30.03- -4.4- -8.3---
2024-04-14 01:04 pmWSW 13 17----30.03- -4.7- -8.7---
2024-04-14 12:54 pmWSW 14 18----30.03- -4.9- -8.9---
2024-04-14 12:44 pmWSW 15 19----30.03- -5.1- -8.9---
2024-04-14 12:34 pm W 16 21----30.02- -5.6- -9.4---
2024-04-14 12:24 pm W 18 21----30.02- -6.0- -9.9---
2024-04-14 12:14 pm W 16 22----30.02- -6.2--10.1---
2024-04-14 12:04 pm W 17 21----30.02- -6.5--10.7---
2024-04-14 11:54 amWSW 16 21----30.01- -6.9--11.0---
2024-04-14 11:44 amWSW 15 19----30.01- -7.2--11.6---
2024-04-14 11:34 amWSW 14 19----30.01- -7.6--11.9---
2024-04-14 11:24 amWSW 14 18----30.01- -8.0--12.5---
2024-04-14 11:14 amWSW 15 18----30.01- -8.3--12.8---
2024-04-14 11:04 amWSW 14 17----30.01- -9.0--13.5---
2024-04-14 10:53 amWSW 13 16----30.01- -9.8--14.4---
2024-04-14 10:44 amWSW 14 16----30.01- -9.9--14.6---
2024-04-14 10:34 amWSW 13 16----30.00--10.3--15.0---
2024-04-14 10:24 amWSW 13 17----30.00--10.5--15.2---
2024-04-14 10:14 amWSW 13 16----30.00--10.8--15.7---
2024-04-14 10:03 amWSW 13 16----29.99--11.0--15.9---
2024-04-14 09:53 amWSW 13 16----29.99--11.0--15.9---